Location: Scultetus-Sternwarte Görlitz
(51.1345°N, 14.9495°E)
Time: 13:25:30
(UTC+02:00)

ISS - Visible Passes

Search period start: 22 October 2019 00:00
Search period end: 31 October 2019 23:00
Orbit: 411 x 421 km, 51.6° (Epoch: 22 October)

Date Brightness Start Highest point End Pass type
(mag) Time Alt. Az. Time Alt. Az. Time Alt. Az.
24 Oct -0.8 06:50:49 10° S 06:52:53 15° SE 06:54:57 10° ESE visible
25 Oct -0.4 06:04:12 10° SE 06:04:32 10° SE 06:04:52 10° SE visible
26 Oct -1.9 06:49:05 10° SSW 06:52:04 30° SSE 06:55:04 10° E visible
27 Oct -1.4 05:01:00 10° SSW 05:03:36 21° SE 05:06:13 10° E visible
28 Oct -1.1 04:14:38 14° SSE 04:15:11 14° SE 04:17:06 10° ESE visible
28 Oct -3.1 05:48:04 10° SW 05:51:22 54° SSE 05:54:41 10° E visible
29 Oct -2.6 05:01:15 24° SSW 05:02:48 39° SSE 05:05:59 10° E visible
30 Oct -1.8 04:14:50 26° SE 04:14:50 26° SE 04:17:13 10° E visible
30 Oct -3.7 05:47:45 13° WSW 05:50:45 83° SSE 05:54:07 10° E visible
31 Oct -3.6 05:01:14 44° SW 05:02:06 68° SSE 05:05:27 10° E visible
